SCP
0 0 0 1 0 0 0 0 0 0 0 0 0 0 0 0 0 0 0 0 0 0 0 0 0 0 0 0 0 0 0 0 0 0 0 0 0 0 0 0 0 0 0 0 0 0 0 0 0
0 0 1 1 0 0 0 0 0 0 0 0 0 0 0 0 0 0 0 0 0 0 0 0 0 0 0 0 0 0 0 0 0 0 0 0 0 0 0 0 0 0 0 0 0 0 0 0 0
0 0 1 0 0 0 0 0 0 0 0 0 0 0 0 0 0 0 0 0 0 0 0 0 0 0 0 0 0 0 0 0 0 0 0 0 0 0 0 0 0 0 0 0 0 0 0 0 0
0 0 0 0 0 0 0 0 0 0 0 0 0 0 0 0 0 0 0 0 0 0 0 0 0 0 0 0 0 0 0 0 0 0 0 0 0 0 0 0 0 0 0 0 0 0 0 0 0
0 0 0 0 0 0 0 0 0 0 0 0 0 0 0 0 0 0 0 0 0 0 0 0 0 0 0 0 0 0 0 0 0 0 0 0 0 0 0 0 0 0 0 0 0 0 0 0 0
0 0 0 0 0 0 0 0 0 0 0 0 0 0 0 0 0 0 0 0 0 0 0 0 0 0 0 0 0 0 0 0 0 0 0 0 0 0 0 0 0 0 0 0 0 0 0 0 0
0 0 0 0 0 0 0 0 0 0 0 0 0 0 0 0 0 0 0 0 0 0 0 0 0 0 0 0 0 0 0 0 0 0 0 0 0 0 0 0 0 0 0 0 0 0 0 0 0
0 0 0 0 0 0 0 0 0 0 0 0 0 0 0 0 0 0 0 0 0 0 0 0 0 0 0 0 0 0 0 0 0 0 0 0 0 0 0 0 0 0 0 0 0 0 0 0 0
0 0 0 0 0 0 0 0 0 0 0 0 0 0 0 0 0 0 0 0 0 0 0 0 0 0 0 0 0 0 0 0 0 0 0 0 0 0 0 0 0 0 0 0 0 0 0 0 0
0 0 0 0 0 0 0 0 0 0 0 0 0 0 0 0 0 0 0 0 0 0 0 0 0 0 0 0 0 0 0 0 0 0 0 0 0 0 0 0 0 0 0 0 0 0 0 0 0
0 0 0 0 0 0 0 0 0 0 0 0 0 0 0 0 0 0 0 0 0 0 0 0 0 0 0 0 0 0 0 0 0 0 0 0 0 0 0 0 0 0 0 0 0 0 0 0 0
0 0 0 0 0 0 0 0 0 0 0 0 0 0 0 0 0 0 0 0 0 0 0 0 0 0 0 0 0 0 0 0 0 0 0 0 0 0 0 0 0 0 0 0 0 0 0 0 0
0 0 0 0 0 0 0 0 0 0 0 0 0 0 0 0 0 0 0 0 0 0 0 0 0 0 0 0 0 0 0 0 0 0 0 0 0 0 0 0 0 0 0 0 0 0 0 0 0
0 0 0 0 0 0 0 0 0 0 0 0 0 0 0 0 0 0 0 0 0 0 0 0 0 0 0 0 0 0 0 0 0 0 0 0 0 0 0 0 0 0 0 0 0 0 0 0 0
0 0 0 0 0 0 0 0 0 0 0 0 0 0 0 0 0 0 0 0 0 0 0 0 0 0 0 0 0 0 0 0 0 0 0 0 0 0 0 0 0 0 0 0 0 0 0 0 0
0 0 0 0 0 0 0 0 0 0 0 0 0 0 0 0 0 0 0 0 0 0 0 0 0 0 0 0 0 0 0 0 0 0 0 0 0 0 0 0 0 0 0 0 0 0 0 0 0
0 0 0 0 0 0 0 0 0 0 0 0 0 0 0 0 0 0 0 0 0 0 0 0 0 0 0 0 0 0 0 0 0 0 0 0 0 0 0 0 0 0 0 0 0 0 0 0 0
0 0 0 0 0 0 0 0 0 0 0 0 0 0 0 0 0 0 0 0 0 0 0 0 0 0 0 0 0 0 0 0 0 0 0 0 0 0 0 0 0 0 0 0 0 0 0 0 0
0 0 0 0 0 0 0 0 0 0 0 0 0 0 0 0 0 0 0 0 0 0 0 0 0 0 0 0 0 0 0 0 0 0 0 0 0 0 0 0 0 0 0 0 0 0 0 0 0
0 0 0 0 0 0 0 0 0 0 0 0 0 0 0 0 0 0 0 0 0 0 0 0 0 0 0 0 0 0 0 0 0 0 0 0 0 0 0 0 0 0 0 0 0 0 0 0 0
0 0 0 0 0 0 0 0 0 0 0 0 0 0 0 0 0 0 0 0 0 0 0 0 1 0 0 0 0 0 0 0 0 0 0 0 0 0 0 0 0 0 0 0 0 0 0 0 0
0 0 0 0 0 0 0 0 0 0 0 0 0 0 0 0 0 0 0 0 0 0 0 1 1 1 1 0 0 0 0 0 0 0 0 0 0 0 0 0 0 0 0 0 0 0 0 0 0
0 0 0 0 0 0 0 0 0 0 0 0 0 0 0 0 0 0 0 0 0 0 0 1 1 1 1 1 0 0 0 0 0 0 0 1 1 1 0 0 0 0 0 0 0 0 0 0 0
0 0 0 0 0 0 0 0 0 0 0 0 0 0 0 0 0 0 0 0 0 0 0 1 1 1 1 1 0 0 0 0 0 0 0 1 1 1 1 0 0 0 0 0 0 0 0 0 0
0 0 0 0 0 0 0 0 0 0 0 0 0 0 0 0 0 0 0 0 0 1 1 1 1 1 1 1 1 1 1 0 0 0 1 1 1 1 1 1 1 0 0 0 0 0 0 0 0
0 0 0 0 0 0 0 0 0 0 0 0 0 0 0 0 0 0 1 1 1 1 1 1 1 1 1 1 1 1 1 1 1 1 1 1 1 1 1 1 1 1 0 0 0 0 0 0 0
0 0 0 0 0 0 0 0 0 0 0 0 0 0 0 0 0 0 1 1 1 1 1 1 1 1 1 1 1 1 1 1 1 1 1 1 1 1 1 1 1 1 0 0 0 0 0 0 0
0 0 0 0 0 0 0 0 0 0 0 0 0 0 0 0 0 0 1 1 1 1 1 1 1 1 1 1 1 1 1 1 1 1 1 1 1 1 1 1 1 1 1 1 1 0 0 0 0
0 0 0 0 0 0 0 0 0 0 0 0 0 0 0 0 0 0 1 1 1 1 1 1 1 1 1 1 1 1 1 1 1 1 1 1 1 1 1 1 1 1 1 1 1 1 0 0 0
0 0 0 0 0 0 0 0 0 0 0 0 0 0 0 0 0 0 1 1 1 1 1 1 1 1 1 1 1 1 1 1 1 1 1 1 1 1 1 1 1 1 1 1 1 1 0 0 0
Wind_Speed
10 11 9 6 4 2 5 9 10 10 11 11 11 11 13 13 10 9 7 9 12 14 14 14 14 14 13 12 12 12 12 12 11 12 12 12 12 12 12 12 11 10 10 10 9 9 8 8 7
9 12 8 5 2 2 7 8 10 11 10 10 12 12 13 13 12 10 8 10 13 13 13 14 14 13 13 12 11 11 12 12 11 11 12 11 11 11 11 11 10 10 9 9 8 8 8 7 6
12 13 6 3 1 5 9 10 10 10 10 10 12 12 11 9 10 8 8 12 13 13 12 13 14 13 12 11 11 11 11 11 11 11 11 11 10 9 10 10 9 9 9 8 8 8 7 6 5
8 6 4 2 5 9 10 10 9 10 11 11 11 11 11 10 9 9 10 12 13 13 12 12 13 13 12 12 11 11 11 11 11 11 10 10 9 9 9 9 9 8 8 7 7 6 6 5 4
7 4 2 1 8 11 10 10 10 11 12 13 14 13 12 12 12 11 11 12 12 12 12 12 13 13 12 12 11 11 11 11 10 11 10 9 9 8 8 8 8 7 7 6 5 5 4 4 3
4 3 2 3 11 11 10 10 11 12 11 12 13 13 10 10 11 10 10 10 11 11 11 12 13 13 12 12 11 11 11 11 10 10 10 9 8 8 7 7 7 7 6 5 5 4 4 3 2
4 3 2 6 10 10 10 10 10 10 10 11 12 12 10 9 9 10 10 9 10 10 10 11 11 11 12 12 11 11 11 10 9 8 8 8 8 8 7 7 7 6 5 4 4 4 4 3 2
4 2 3 6 9 10 10 10 11 11 11 10 10 10 9 9 9 10 9 9 8 8 9 9 11 10 10 10 11 12 11 10 9 8 7 7 8 8 8 7 6 5 4 4 4 4 4 3 3
3 2 4 7 8 9 9 11 12 12 13 14 14 14 13 12 11 10 9 7 6 8 7 8 9 9 9 10 11 11 11 9 8 7 7 6 5 6 7 7 7 6 5 5 4 5 5 5 5
1 2 7 8 8 8 9 10 10 11 13 14 15 15 14 12 11 10 9 8 8 8 8 8 7 7 7 8 8 7 7 7 5 4 5 4 3 3 6 8 9 8 7 6 7 7 6 5 3
2 5 8 9 9 9 9 10 10 10 11 13 14 13 12 11 10 9 9 8 8 7 8 8 8 6 6 5 5 4 4 4 4 4 3 3 3 3 4 4 5 5 6 5 5 5 3 3 1
4 6 8 9 8 9 10 10 11 12 13 14 13 12 11 10 9 9 9 9 8 7 8 8 8 6 5 4 3 4 4 3 3 3 2 2 2 2 2 2 3 3 2 2 2 2 2 2 1
4 6 8 8 9 9 10 11 10 12 13 14 13 12 11 10 10 9 9 9 8 7 8 8 8 6 5 3 2 4 4 3 4 2 2 3 2 2 2 1 1 2 1 2 1 1 1 1 1
2 4 6 7 8 7 8 9 9 12 12 13 12 11 10 9 10 9 9 9 8 7 7 7 8 7 5 3 1 2 3 3 3 3 3 2 2 2 2 2 1 1 1 1 1 1 1 1 1
1 2 4 6 6 7 7 8 8 11 11 12 12 10 10 10 9 9 9 8 8 8 7 7 8 7 5 4 2 3 3 3 3 3 3 2 2 2 1 1 1 0 0 1 1 1 1 1 1
3 3 2 5 6 6 4 7 9 11 11 11 11 11 10 9 9 9 9 8 8 8 7 5 6 8 5 3 1 2 2 3 2 3 3 2 2 2 1 1 1 0 0 1 1 0 1 1 1
6 5 4 5 5 6 5 6 9 11 11 10 11 11 11 10 9 9 10 9 9 8 6 5 5 6 5 4 2 2 2 2 2 2 3 2 1 1 1 1 1 1 1 1 1 2 0 0 1
4 3 2 3 4 4 6 7 9 10 11 10 11 11 10 10 10 10 10 10 9 8 7 6 5 5 4 3 2 2 2 2 2 2 2 3 1 1 0 1 1 0 1 1 1 1 0 0 0
4 3 1 1 3 3 3 7 9 10 10 10 10 11 11 11 11 11 10 10 10 8 7 6 5 5 3 2 2 2 2 1 2 2 3 2 1 1 0 1 1 1 1 1 1 1 1 1 0
4 4 3 3 4 3 3 5 8 10 10 10 10 12 12 12 12 11 10 10 10 9 8 7 6 5 3 3 1 2 2 1 2 2 3 2 2 1 1 1 0 1 1 1 0 0 0 1 0
6 6 4 4 4 5 4 4 6 10 10 10 10 11 13 14 14 12 11 11 10 10 9 7 7 6 5 4 2 2 1 1 1 2 2 2 2 1 1 1 0 0 1 1 1 0 0 0 1
6 6 6 6 5 4 5 3 5 7 8 10 10 11 12 13 14 13 12 11 11 11 10 8 7 6 5 4 3 3 3 2 2 2 2 2 2 2 1 1 0 1 1 1 1 1 1 1 1
7 6 7 8 8 7 5 3 4 8 9 11 10 10 11 13 14 14 13 11 10 11 10 9 7 6 5 4 4 3 2 2 2 2 3 2 2 2 2 1 0 0 0 0 1 1 1 1 1
7 7 7 8 8 7 5 4 4 5 8 11 11 9 9 11 13 13 13 12 10 10 10 10 8 6 6 5 4 3 3 2 2 2 3 2 2 2 3 2 1 1 0 0 0 0 1 1 2
8 7 5 5 5 5 5 3 4 4 5 8 12 12 12 11 12 12 13 12 11 10 10 10 9 7 6 6 4 4 3 3 4 3 3 3 2 2 3 3 2 1 1 1 1 1 1 1 1
8 10 7 5 4 4 4 1 4 6 6 6 9 11 11 12 11 12 12 12 11 11 10 10 10 8 7 6 5 4 4 3 3 3 2 3 2 2 4 3 3 2 2 2 1 1 2 1 1
9 10 10 8 7 6 2 3 4 6 7 7 8 10 10 11 12 12 12 12 12 11 11 10 10 8 8 7 6 5 5 4 3 3 3 2 2 2 4 3 3 2 2 1 1 1 2 1 1
11 9 7 6 4 4 4 1 2 5 5 6 7 8 9 10 11 12 12 11 11 11 10 10 10 8 8 7 6 6 5 4 3 2 3 2 1 1 2 3 3 3 3 3 2 2 2 1 1
11 10 7 6 6 5 3 2 2 3 4 5 5 7 8 9 11 11 11 11 11 10 11 10 10 9 8 7 6 5 5 5 4 3 3 3 2 2 2 2 2 2 2 2 2 2 2 1 1
11 10 10 7 6 6 4 3 2 2 3 4 4 5 6 6 8 9 9 10 10 10 10 10 9 9 9 8 7 6 5 5 4 4 3 3 3 3 3 3 2 3 2 2 2 3 2 2 2
Wind_Direction
199 212 215 233 253 250 50 55 58 57 57 55 54 60 56 49 60 88 107 100 103 108 112 108 104 104 103 101 99 99 99 98 99 99 99 98 100 101 101 102 103 102 102 101 100 101 100 96 96
227 221 227 246 251 37 61 62 65 61 65 69 64 68 69 67 75 96 103 102 106 107 108 106 107 107 108 106 104 102 102 100 101 103 104 103 102 103 103 106 104 104 103 103 104 103 99 98 101
252 253 254 242 348 56 59 64 69 72 72 74 73 60 59 75 81 93 104 108 105 105 106 110 113 112 110 109 108 107 104 103 104 106 106 107 106 104 104 106 105 103 102 103 104 105 105 106 102
248 245 251 271 49 58 66 73 72 71 71 70 75 72 70 75 89 102 107 108 108 111 111 113 115 114 113 113 112 110 108 107 108 109 110 109 112 109 107 108 106 106 104 103 104 107 110 108 105
242 267 276 358 73 65 64 69 72 72 70 74 80 84 80 88 98 104 109 110 109 109 110 117 119 122 120 118 116 115 115 114 113 112 112 113 114 113 111 111 111 109 107 105 107 109 111 110 111
260 252 259 72 72 67 67 65 72 76 79 86 90 91 90 104 106 106 104 107 111 113 116 120 126 127 126 123 121 120 120 119 118 119 120 125 127 123 121 121 120 120 118 116 118 122 120 119 121
263 293 6 71 78 73 68 69 75 77 74 80 93 97 107 108 110 110 104 101 109 117 126 133 133 130 131 129 129 128 128 127 126 126 132 139 142 139 135 134 134 135 132 130 131 134 130 136 167
243 294 36 61 75 76 75 74 78 76 74 82 93 96 113 119 116 108 107 108 112 121 130 136 138 140 141 137 140 140 139 138 136 139 149 156 158 157 157 152 148 150 154 157 156 159 161 175 209
284 305 51 66 77 81 84 84 84 83 82 76 80 99 114 121 116 112 109 106 111 119 127 131 135 142 142 138 142 150 149 150 149 157 168 171 175 168 166 152 158 170 179 182 185 192 197 204 218
248 45 61 70 82 87 87 89 95 92 86 89 90 99 113 116 115 115 114 113 112 121 126 127 126 130 135 131 140 152 151 154 166 159 177 183 174 152 136 155 172 183 190 198 205 215 217 220 212
73 59 72 79 87 92 88 85 89 93 96 100 106 113 115 114 114 113 111 112 111 118 115 116 119 124 120 120 139 140 134 148 155 155 173 155 145 148 143 155 171 187 196 207 195 206 218 218 204
88 78 77 82 86 86 83 79 81 87 96 106 112 117 116 112 111 111 112 111 107 105 105 109 109 110 110 115 123 131 131 146 140 152 159 139 138 147 143 162 178 182 194 194 183 184 193 221 173
82 91 92 88 88 87 89 86 89 95 103 108 114 116 117 117 114 111 112 112 111 108 105 103 105 105 107 99 121 122 129 133 123 123 124 135 142 143 136 157 174 187 166 161 168 180 141 97 70
76 94 105 106 105 97 98 106 105 109 114 115 116 119 122 118 119 119 116 114 115 113 109 110 112 107 108 114 106 110 111 114 119 121 117 129 128 131 144 157 174 170 171 156 166 140 115 110 89
197 143 140 131 128 119 114 112 118 129 127 125 123 122 121 121 121 123 124 125 125 120 114 117 120 118 116 117 129 116 114 121 111 113 110 107 111 125 134 143 153 175 162 125 100 79 114 142 135
241 244 192 151 139 130 133 124 134 141 135 132 132 133 131 128 130 131 130 127 126 124 122 127 124 123 121 116 102 96 104 103 107 112 110 104 107 138 145 136 132 92 63 112 127 143 125 128 148
230 228 199 155 151 144 140 132 139 148 144 143 144 142 142 141 140 138 135 133 128 125 127 120 109 119 128 128 128 112 100 96 113 115 118 123 125 115 135 105 87 119 102 113 167 102 131 179 132
257 239 197 156 163 162 140 139 148 153 151 152 151 149 149 150 150 147 142 138 136 135 132 126 124 126 135 130 129 117 110 125 125 117 119 129 139 150 161 120 110 124 105 88 86 105 157 228 251
265 284 254 185 172 191 139 148 158 159 160 155 158 155 154 153 151 150 150 147 144 143 140 138 141 137 140 129 137 138 139 147 138 135 131 146 160 122 35 70 106 81 106 114 102 107 205 231 125
248 265 243 214 195 191 179 177 163 165 167 164 166 160 160 156 152 153 157 155 154 152 148 148 151 155 159 152 165 164 160 169 150 128 134 158 143 163 174 102 148 113 105 104 111 81 15 308 130
257 253 254 249 231 206 189 190 171 167 168 166 172 166 164 164 161 163 167 166 162 159 160 163 163 163 172 164 175 164 148 209 126 138 138 157 153 150 359 127 290 79 146 134 213 255 185 244 293
261 266 269 268 251 224 207 184 184 171 176 174 177 172 170 167 164 166 170 170 167 163 163 159 159 161 166 170 186 185 179 175 181 167 150 170 169 176 160 126 32 359 30 129 224 130 296 258 252
269 283 292 292 282 266 225 193 183 175 185 182 180 174 171 167 166 167 168 169 168 165 163 160 158 162 166 182 189 199 189 186 182 157 153 176 178 185 157 145 139 312 312 51 35 41 323 311 315
264 268 273 273 268 261 244 201 171 181 187 174 168 166 168 171 165 163 163 166 169 166 165 161 158 163 167 183 188 188 199 192 194 180 176 199 178 178 174 162 170 229 244 70 51 297 286 302 322
239 248 262 263 249 251 245 198 142 160 157 157 162 164 169 169 161 162 162 165 169 170 168 160 161 168 173 184 188 185 200 198 208 210 196 208 191 173 167 174 171 211 200 202 227 244 281 285 300
241 249 248 253 258 263 269 180 135 135 132 148 155 156 162 160 161 164 164 166 170 172 167 162 163 169 177 182 186 185 193 209 209 209 227 209 215 175 156 166 178 201 219 224 204 238 239 234 267
246 255 265 264 263 270 242 161 143 133 137 143 142 148 155 161 162 165 166 170 172 173 169 167 162 170 181 185 183 183 193 217 214 190 215 218 199 173 151 164 177 191 216 237 228 242 263 262 263
254 267 278 276 281 274 270 261 149 142 146 142 144 150 154 159 163 166 167 170 170 174 167 166 164 171 180 183 187 185 189 201 208 202 189 200 207 153 149 167 181 195 199 205 224 238 242 216 226
227 242 260 281 281 260 258 271 180 166 155 145 147 147 157 165 164 162 166 168 169 171 166 168 168 171 177 184 186 185 184 191 193 199 197 189 192 190 187 192 199 208 206 203 216 235 231 239 251
252 244 242 245 256 266 255 228 210 133 154 137 146 139 147 152 153 153 157 165 170 173 170 171 174 177 182 184 178 188 182 185 191 194 195 186 186 193 196 198 204 213 206 206 218 231 226 232 236